Weather History for Springfield, OH

Change the Weather History Date:

Monday, July 29, 2013

  Actual Average (KDAY) Record (KDAY)
Temperature  
Mean Temperature 64 °F 74 °F  
Max Temperature 75 °F 83 °F 100 °F (1901)
Min Temperature 54 °F 64 °F 51 °F (1968)
Degree Days  
Heating Degree Days 0 0  
Month to date heating degree days 0  
Since 1 June heating degree days 22  
Since 1 July heating degree days 0  
Cooling Degree Days 0 9  
Month to date cooling degree days 261  
Year to date cooling degree days 521  
Since 1 June cooling degree days 451  
Growing Degree Days 14 (Base 50)    
Moisture  
Dew Point 56 °F    
Average Humidity 76    
Maximum Humidity 96    
Minimum Humidity 51    
Precipitation  
Precipitation 0.00 in 0.11 in 1.56 in (2001)
Month to date precipitation 3.89  
Year to date precipitation 25.10  
Snow  
Snow 0.00 in 0.00 in 0.00 in ()
Month to date snowfall 0.0  
Since 1 June snowfall 0.0  
Since 1 July snowfall 0.0  
Snow Depth -    
Sea Level Pressure  
Sea Level Pressure 30.15 in    
Wind  
Wind Speed 5 mph (SW)    
Max Wind Speed 13 mph    
Max Gust Speed 18 mph    
Visibility 9 miles    
Events      
T = Trace of Precipitation, MM = Missing Value Source: NWS Daily Summary

Daily Weather History Graph

Daily Weather History Graph

Search for Another Location

Airport:

Trip Planner

Search our weather history database for the weather conditions in past years. The results will help you decide how hot, cold, wet, or windy it might be!

Date:

Astronomy

Jul. 29, 2013 Rise Set
Actual Time 6:31 AM EDT 8:51 PM EDT
Civil Twilight 6:01 AM EDT 9:21 PM EDT
Nautical Twilight 5:23 AM EDT 9:59 PM EDT
Astronomical Twilight 4:41 AM EDT 10:40 PM EDT
Moon 12:14 AM EDT (7/29) 2:11 PM EDT (7/29)
Length of Visible Light 15h 20m
Length of Day
14h 19m
Waning Gibbous, 51% of the Moon is Illuminated
Jul 29
Waning Gibbous
Jul 29
Last Quarter
Aug 6
New
Aug 14
First Quarter
Aug 20
Full

Hourly Weather History & Observations

Time (EDT) Temp. Dew Point Humidity Pressure Visibility Wind Dir Wind Speed Gust Speed Precip Events Conditions
12:56 AM 55.9 °F 52.9 °F 89% 30.07 in 10.0 mi South 5.8 mph - N/A   Partly Cloudy
1:56 AM 55.9 °F 52.9 °F 89% 30.08 in 9.0 mi SSW 6.9 mph - N/A   Clear
2:56 AM 54.9 °F 52.9 °F 93% 30.08 in 9.0 mi Calm Calm - N/A   Clear
3:56 AM 55.9 °F 54.0 °F 93% 30.08 in 9.0 mi South 4.6 mph - N/A   Mostly Cloudy
4:56 AM 55.9 °F 54.9 °F 96% 30.09 in 9.0 mi Calm Calm - N/A   Mostly Cloudy
5:56 AM 54.0 °F 52.9 °F 96% 30.11 in 9.0 mi South 3.5 mph - N/A   Partly Cloudy
6:56 AM 54.9 °F 52.9 °F 93% 30.12 in 8.0 mi South 4.6 mph - N/A   Scattered Clouds
7:56 AM 55.9 °F 54.9 °F 96% 30.12 in 8.0 mi SSW 4.6 mph - N/A   Scattered Clouds
8:56 AM 61.9 °F 56.8 °F 84% 30.14 in 8.0 mi SSW 5.8 mph - N/A   Clear
9:56 AM 65.8 °F 56.8 °F 73% 30.15 in 9.0 mi Variable 4.6 mph - N/A   Clear
10:56 AM 68.9 °F 55.9 °F 63% 30.15 in 9.0 mi West 8.1 mph - N/A   Clear
11:56 AM 70.9 °F 55.9 °F 59% 30.16 in 9.0 mi West 10.4 mph 17.3 mph N/A   Partly Cloudy
12:56 PM 72.0 °F 54.9 °F 55% 30.17 in 9.0 mi West 11.5 mph 18.4 mph N/A   Clear
1:56 PM 72.9 °F 56.8 °F 57% 30.16 in 9.0 mi West 8.1 mph - N/A   Partly Cloudy
2:56 PM 73.9 °F 56.8 °F 55% 30.16 in 10.0 mi West 9.2 mph - N/A   Partly Cloudy
3:56 PM 75.9 °F 56.8 °F 51% 30.15 in 9.0 mi West 12.7 mph 16.1 mph N/A   Scattered Clouds
4:56 PM 73.9 °F 54.9 °F 51% 30.16 in 9.0 mi Variable 4.6 mph - N/A   Scattered Clouds
5:56 PM 73.9 °F 55.9 °F 53% 30.17 in 10.0 mi Variable 5.8 mph - N/A   Mostly Cloudy
6:56 PM 72.9 °F 56.8 °F 57% 30.18 in 8.0 mi WSW 5.8 mph - N/A   Mostly Cloudy
7:56 PM 72.0 °F 57.9 °F 61% 30.19 in 9.0 mi SSW 4.6 mph - N/A   Overcast
8:56 PM 68.0 °F 59.9 °F 75% 30.19 in 9.0 mi SSW 3.5 mph - N/A   Mostly Cloudy
9:56 PM 63.0 °F 59.9 °F 90% 30.21 in 10.0 mi Calm Calm - N/A   Scattered Clouds
10:56 PM 61.0 °F 59.0 °F 93% 30.21 in 10.0 mi Calm Calm - N/A   Clear
11:56 PM 59.9 °F 57.9 °F 93% 30.22 in 10.0 mi SSE 3.5 mph - N/A   Clear